Tracking 28790 objects as of 19-Apr-2024
HD Live streaming from Space Station
objects crossing your sky now

ATLAS CENTAUR 2 DEB

Track ATLAS CENTAUR 2 DEB now!
10-day predictions


NORAD ID: 739
Int'l Code: 1963-047H
Perigee: 487.4 km
Apogee: 1,428.0 km
Inclination: 30.4 °
Period: 104.1 minutes
Semi major axis: 7328 km
RCS: 0.2965 m2 (medium)
Launch date: November 27, 1963
Source: United States (US)
Launch site: AIR FORCE EASTERN TEST RANGE (AFETR)

Note: This is SATELLITE DEBRIS
Your satellite tracking list
Your tracking list is empty




NASA's NSSDC Master Catalog

Two Line Element Set (TLE):
1   739U 63047H   24110.06416460  .00000992  00000-0  14869-3 0  9995
2   739  30.4289 353.3023 0641669 234.3203 119.6011 13.83762689 31999
Source of the keplerian elements: AFSPC